Location: Ch�risy
(50.2331°N, 2.9131°E)
Time: 02:24:22
(UTC+00:00)

SAR-Lupe-4 - Pass Details

Date: 17 January 2021
Orbit: 480 x 484 km, 98.2° (Epoch: 27 February)

Event Time Altitude Azimuth Distance (km) Brightness Sun altitude
Exits shadow 18:12:30 46° 95° (E) 663 3.8 -17.8°
Maximum altitude 18:12:35 46° 101° (E) 661 3.8 -17.9°
Drops below altitude 10° 18:16:02 10° 175° (S) 1,659 6.3 -18.4°
Sets 18:18:08 0° 182° (S) 2,533 7.4 -18.7°
